カタログに戻る

COSMOS 374 DEB

運用中LEO
NORAD 4621·DEBRIS·🇷🇺 Russia

打ち上げ Oct 23, 1970 から Baikonur Cosmodrome

Loading…

次のパス (今後24時間)

TLE

最新Source: Space-Track

元期: Sep 14, 2026, 10:57 UTC

1 04621U 70089H   26257.45666381  .00000578  00000-0  24965-3 0  9997
2 04621  62.9252 278.4892 0625910 220.4057 134.8864 13.59867302693673

AllMySatでCOSMOS 374 DEBをリアルタイム追跡

Download on the App Store